Total_Precipitation_Accumulation
0.00 0.00 0.00 0.00 0.00 0.00 0.00 0.00 0.00 0.00 0.00 0.00 0.00 0.00 0.00 0.00 0.00 0.00 0.00 0.00 0.00 0.01 0.01 0.01 0.01 0.01 0.00 0.00 0.00 0.00 0.00 0.00 0.00 0.00 0.00 0.01 0.03 0.05 0.04 0.02 0.11 0.14 0.04
0.00 0.00 0.00 0.00 0.00 0.00 0.00 0.00 0.00 0.00 0.00 0.00 0.00 0.01 0.00 0.00 0.00 0.00 0.00 0.00 0.00 0.00 0.00 0.00 0.00 0.00 0.00 0.00 0.00 0.00 0.00 0.00 0.00 0.00 0.01 0.01 0.04 0.06 0.03 0.01 0.09 0.08 0.01
0.00 0.00 0.00 0.00 0.00 0.00 0.00 0.00 0.00 0.00 0.00 0.00 0.01 0.00 0.00 0.00 0.00 0.00 0.00 0.00 0.00 0.00 0.00 0.00 0.00 0.00 0.00 0.00 0.00 0.00 0.00 0.00 0.00 0.00 0.01 0.02 0.02 0.04 0.02 0.00 0.00 0.01 0.01
0.00 0.00 0.00 0.00 0.00 0.00 0.00 0.00 0.00 0.00 0.00 0.00 0.00 0.00 0.00 0.00 0.00 0.00 0.00 0.00 0.00 0.00 0.00 0.00 0.00 0.00 0.00 0.00 0.00 0.00 0.00 0.00 0.00 0.00 0.03 0.10 0.02 0.01 0.01 0.00 0.00 0.00 0.00
0.00 0.00 0.00 0.00 0.00 0.01 0.00 0.00 0.00 0.00 0.00 0.00 0.00 0.00 0.00 0.00 0.01 0.00 0.00 0.00 0.00 0.00 0.00 0.00 0.00 0.00 0.00 0.00 0.00 0.00 0.00 0.00 0.00 0.00 0.01 0.05 0.05 0.03 0.01 0.01 0.00 0.00 0.00
0.00 0.00 0.00 0.00 0.00 0.01 0.00 0.00 0.00 0.00 0.00 0.00 0.00 0.00 0.00 0.01 0.01 0.00 0.00 0.00 0.00 0.00 0.00 0.00 0.00 0.00 0.00 0.00 0.00 0.00 0.01 0.01 0.00 0.01 0.01 0.03 0.11 0.11 0.05 0.08 0.05 0.03 0.01
0.00 0.00 0.00 0.00 0.00 0.00 0.00 0.00 0.00 0.00 0.00 0.01 0.00 0.00 0.00 0.01 0.01 0.01 0.00 0.00 0.00 0.00 0.00 0.00 0.00 0.00 0.00 0.00 0.00 0.00 0.00 0.01 0.01 0.02 0.04 0.08 0.14 0.15 0.16 0.30 0.32 0.22 0.11
0.00 0.00 0.00 0.00 0.00 0.01 0.01 0.01 0.00 0.00 0.00 0.00 0.00 0.00 0.00 0.00 0.00 0.00 0.00 0.00 0.01 0.02 0.01 0.00 0.00 0.00 0.00 0.00 0.00 0.01 0.01 0.01 0.00 0.00 0.01 0.06 0.14 0.18 0.32 0.52 0.52 0.42 0.32
0.00 0.00 0.00 0.00 0.00 0.01 0.01 0.01 0.01 0.01 0.00 0.00 0.00 0.00 0.00 0.00 0.00 0.00 0.00 0.00 0.01 0.02 0.03 0.02 0.01 0.00 0.01 0.01 0.02 0.02 0.03 0.03 0.01 0.02 0.02 0.02 0.06 0.09 0.29 0.46 0.43 0.39 0.36
0.00 0.00 0.00 0.00 0.00 0.00 0.00 0.01 0.01 0.01 0.01 0.01 0.00 0.00 0.00 0.00 0.01 0.01 0.02 0.02 0.02 0.02 0.03 0.04 0.03 0.03 0.05 0.06 0.07 0.07 0.07 0.04 0.02 0.01 0.02 0.03 0.07 0.16 0.34 0.42 0.37 0.37 0.36
0.00 0.00 0.00 0.00 0.00 0.00 0.00 0.00 0.01 0.01 0.01 0.01 0.01 0.01 0.01 0.01 0.06 0.11 0.15 0.20 0.16 0.13 0.10 0.08 0.09 0.11 0.11 0.07 0.11 0.23 0.17 0.03 0.02 0.01 0.01 0.02 0.11 0.27 0.45 0.47 0.44 0.41 0.38
0.00 0.01 0.01 0.01 0.00 0.00 0.00 0.01 0.01 0.01 0.02 0.01 0.03 0.09 0.12 0.15 0.14 0.08 0.23 0.29 0.29 0.32 0.26 0.25 0.38 0.28 0.15 0.07 0.30 0.74 0.28 0.09 0.07 0.06 0.05 0.08 0.22 0.42 0.56 0.48 0.44 0.45 0.43
0.01 0.01 0.01 0.01 0.01 0.01 0.01 0.01 0.01 0.02 0.06 0.07 0.08 0.15 0.25 0.26 0.17 0.08 0.11 0.23 0.36 0.46 0.36 0.44 0.57 0.31 0.24 0.28 0.34 0.48 0.34 0.23 0.15 0.18 0.21 0.26 0.41 0.61 0.68 0.54 0.47 0.47 0.46
0.03 0.04 0.05 0.04 0.03 0.03 0.03 0.02 0.02 0.04 0.07 0.08 0.14 0.18 0.31 0.31 0.24 0.19 0.18 0.18 0.28 0.37 0.51 0.49 0.44 0.44 0.46 0.40 0.41 0.40 0.43 0.45 0.32 0.36 0.41 0.37 0.44 0.61 0.75 0.64 0.52 0.50 0.48
0.08 0.13 0.18 0.17 0.13 0.11 0.09 0.08 0.06 0.08 0.10 0.11 0.20 0.26 0.35 0.44 0.39 0.41 0.38 0.32 0.26 0.36 0.50 0.60 0.60 0.61 0.57 0.53 0.51 0.45 0.42 0.42 0.47 0.51 0.48 0.50 0.64 0.70 0.72 0.72 0.63 0.53 0.47
0.17 0.28 0.39 0.44 0.45 0.38 0.31 0.27 0.24 0.23 0.25 0.28 0.38 0.47 0.58 0.66 0.72 0.77 0.67 0.56 0.44 0.47 0.52 0.65 0.65 0.71 0.60 0.60 0.42 0.40 0.41 0.38 0.43 0.47 0.47 0.65 0.76 0.64 0.57 0.58 0.60 0.54 0.46
0.38 0.49 0.59 0.74 0.88 0.84 0.74 0.65 0.57 0.54 0.56 0.65 0.77 0.81 0.94 1.06 1.11 1.07 0.86 0.62 0.58 0.73 0.79 0.68 0.61 0.73 0.50 0.45 0.40 0.49 0.51 0.42 0.36 0.36 0.37 0.46 0.57 0.52 0.43 0.40 0.46 0.48 0.50
0.74 0.83 0.97 1.12 1.19 1.25 1.19 1.09 1.00 0.96 0.99 0.99 0.97 0.91 0.93 1.06 1.07 1.05 0.75 0.46 0.55 0.79 0.86 0.78 0.73 0.73 0.61 0.62 0.62 0.66 0.65 0.52 0.36 0.31 0.25 0.26 0.31 0.27 0.33 0.43 0.41 0.39 0.50
1.27 1.53 1.74 1.86 1.76 1.81 1.80 1.69 1.57 1.43 1.25 1.08 1.00 0.85 0.77 0.74 0.72 0.73 0.46 0.35 0.51 0.66 0.69 0.68 0.71 0.77 0.67 0.69 0.76 0.70 0.55 0.42 0.31 0.25 0.21 0.18 0.20 0.20 0.19 0.30 0.29 0.34 0.51
1.69 2.15 2.48 2.51 2.31 2.08 1.86 1.59 1.50 1.39 1.27 1.11 0.94 0.74 0.63 0.54 0.49 0.54 0.41 0.32 0.47 0.56 0.52 0.68 0.75 0.82 0.69 0.64 0.66 0.45 0.33 0.22 0.20 0.14 0.12 0.11 0.11 0.11 0.12 0.17 0.28 0.29 0.47
1.95 2.42 2.61 2.56 2.12 1.67 1.49 1.30 1.18 1.03 0.93 0.89 0.81 0.70 0.60 0.49 0.47 0.53 0.44 0.38 0.41 0.44 0.41 0.56 0.67 0.68 0.51 0.71 0.79 0.37 0.17 0.10 0.10 0.08 0.07 0.07 0.07 0.10 0.15 0.19 0.24 0.30 0.48
1.87 2.35 2.41 1.96 1.50 1.22 1.08 0.96 0.83 0.79 0.73 0.66 0.57 0.48 0.43 0.41 0.41 0.43 0.37 0.30 0.31 0.35 0.35 0.39 0.48 0.52 0.44 0.70 0.79 0.64 0.33 0.16 0.10 0.06 0.09 0.10 0.12 0.14 0.19 0.23 0.33 0.44 0.55
1.68 1.73 1.44 1.15 0.89 0.70 0.60 0.55 0.56 0.53 0.50 0.42 0.35 0.31 0.32 0.35 0.33 0.30 0.26 0.25 0.28 0.29 0.31 0.36 0.47 0.58 0.49 0.54 0.74 0.84 0.58 0.29 0.24 0.17 0.19 0.24 0.26 0.31 0.34 0.42 0.52 0.59 0.67
1.15 1.00 0.81 0.70 0.58 0.53 0.52 0.45 0.51 0.45 0.39 0.34 0.28 0.27 0.29 0.30 0.27 0.24 0.24 0.31 0.34 0.37 0.41 0.40 0.44 0.52 0.54 0.47 0.54 0.68 0.71 0.67 0.55 0.30 0.21 0.23 0.30 0.34 0.38 0.44 0.49 0.60 0.64
0.61 0.56 0.46 0.53 0.59 0.54 0.50 0.44 0.40 0.34 0.29 0.26 0.28 0.30 0.33 0.33 0.30 0.27 0.23 0.25 0.31 0.37 0.39 0.39 0.39 0.45 0.50 0.49 0.47 0.51 0.61 0.71 0.68 0.52 0.29 0.21 0.28 0.31 0.39 0.46 0.52 0.57 0.61
0.26 0.25 0.25 0.32 0.39 0.39 0.39 0.38 0.35 0.32 0.30 0.27 0.27 0.28 0.29 0.31 0.32 0.30 0.27 0.27 0.27 0.27 0.28 0.31 0.33 0.35 0.38 0.41 0.44 0.47 0.51 0.54 0.58 0.66 0.52 0.40 0.36 0.37 0.47 0.56 0.65 0.71 0.72